�������l�o���
Date,Time,MP-1(��Sv/h),MP-2(��Sv/h),MP-3(��Sv/h),MP-4(��Sv/h),MP-5(��Sv/h),MP-6(��Sv/h),MP-7(��Sv/h),MP-8(��Sv/h),����,����(m/s),���J
2017/02/24,00:00,1.048,1.751,1.172,2.040,1.414,0.557,1.024,0.948,�k�k��,4.2,��
2017/02/24,00:10,1.047,1.751,1.170,2.039,1.413,0.558,1.024,0.947,�k,4.1,��
2017/02/24,00:20,1.047,1.748,1.171,2.037,1.417,0.557,1.023,0.949,�k,5.4,��
2017/02/24,00:30,1.048,1.752,1.171,2.038,1.413,0.556,1.022,0.948,�k,6.3,��
2017/02/24,00:40,1.050,1.749,1.170,2.037,1.412,0.558,1.023,0.949,�k,5.3,��
2017/02/24,00:50,1.049,1.752,1.169,2.042,1.414,0.557,1.023,0.948,�k,4.6,��
2017/02/24,01:00,1.047,1.749,1.169,2.037,1.414,0.556,1.023,0.948,�k�k��,4.1,��
2017/02/24,01:10,1.048,1.750,1.169,2.040,1.415,0.555,1.022,0.950,�k�k��,3.8,��
2017/02/24,01:20,1.048,1.751,1.170,2.039,1.412,0.557,1.024,0.947,�쐼,0.8,��
2017/02/24,01:30,1.047,1.748,1.167,2.035,1.413,0.558,1.022,0.948,�k�k��,1.7,��
2017/02/24,01:40,1.047,1.750,1.170,2.039,1.413,0.557,1.023,0.947,�k,4.7,��
2017/02/24,01:50,1.047,1.751,1.168,2.037,1.414,0.556,1.022,0.947,�k,4.5,��
2017/02/24,02:00,1.048,1.750,1.168,2.036,1.411,0.557,1.023,0.948,�k,0.8,��
2017/02/24,02:10,1.046,1.749,1.170,2.037,1.411,0.555,1.022,0.949,�k,1.2,��
2017/02/24,02:20,1.046,1.751,1.168,2.036,1.413,0.556,1.022,0.947,�k�k��,1.5,��
2017/02/24,02:30,1.044,1.748,1.169,2.034,1.411,0.555,1.022,0.948,�k�k��,1.7,��
2017/02/24,02:40,1.046,1.750,1.165,2.037,1.410,0.555,1.020,0.947,�k��,1.5,��
2017/02/24,02:50,1.045,1.750,1.168,2.035,1.413,0.557,1.021,0.949,�k,2.0,��
2017/02/24,03:00,1.046,1.747,1.169,2.037,1.414,0.556,1.022,0.949,���k��,3.0,��
2017/02/24,03:10,1.047,1.751,1.167,2.039,1.415,0.556,1.022,0.948,���k��,1.7,��
2017/02/24,03:20,1.046,1.747,1.167,2.036,1.413,0.556,1.022,0.947,�k�k��,3.5,��
2017/02/24,03:30,1.044,1.749,1.167,2.037,1.415,0.556,1.021,0.948,�k��,8.9,��
2017/02/24,03:40,1.044,1.752,1.169,2.038,1.415,0.557,1.023,0.949,���k��,8.2,��
2017/02/24,03:50,1.046,1.751,1.167,2.040,1.414,0.558,1.022,0.948,��,7.1,��
2017/02/24,04:00,1.045,1.751,1.169,2.036,1.412,0.557,1.022,0.948,��,8.1,��
2017/02/24,04:10,1.044,1.750,1.172,2.036,1.415,0.556,1.021,0.947,���k��,7.9,��
2017/02/24,04:20,1.043,1.748,1.168,2.037,1.413,0.553,1.021,0.949,���k��,8.6,��
2017/02/24,04:30,1.043,1.749,1.168,2.038,1.415,0.556,1.021,0.947,�k��,4.3,��
2017/02/24,04:40,1.045,1.750,1.168,2.039,1.413,0.555,1.022,0.945,�k��,5.2,��
2017/02/24,04:50,1.045,1.749,1.168,2.039,1.414,0.553,1.022,0.949,���k��,8.5,��
2017/02/24,05:00,1.046,1.748,1.168,2.039,1.418,0.555,1.022,0.947,���k��,7.4,��
2017/02/24,05:10,1.044,1.752,1.165,2.037,1.415,0.554,1.023,0.947,��,11.1,��
2017/02/24,05:20,1.044,1.751,1.165,2.040,1.412,0.553,1.022,0.950,�k��,6.8,��
2017/02/24,05:30,1.042,1.749,1.165,2.038,1.412,0.555,1.020,0.948,���k��,5.7,��
2017/02/24,05:40,1.045,1.748,1.167,2.038,1.412,0.554,1.022,0.947,�k�k��,2.0,��
2017/02/24,05:50,1.045,1.752,1.168,2.037,1.413,0.554,1.021,0.946,�k,1.5,��
2017/02/24,06:00,1.045,1.748,1.167,2.039,1.412,0.555,1.020,0.947,�k�k��,3.8,��
2017/02/24,06:10,1.043,1.750,1.168,2.036,1.412,0.556,1.019,0.946,�k�k��,2.6,��
2017/02/24,06:20,1.043,1.747,1.167,2.041,1.411,0.557,1.022,0.947,�k,3.1,��
2017/02/24,06:30,1.040,1.749,1.166,2.038,1.413,0.555,1.018,0.947,�k�k��,2.9,��
2017/02/24,06:40,1.042,1.747,1.153,2.037,1.412,0.553,1.019,0.946,�k,3.4,��
2017/02/24,06:50,1.042,1.747,1.164,2.039,1.411,0.555,1.021,0.947,�k,3.8,��
2017/02/24,07:00,1.044,1.752,1.162,2.037,1.414,0.554,1.022,0.947,�k,4.4,��
2017/02/24,07:10,1.043,1.747,1.167,2.038,1.411,0.554,1.019,0.947,�k,6.2,��
2017/02/24,07:20,1.044,1.748,1.167,2.037,1.411,0.556,1.018,0.945,�k,5.3,��
2017/02/24,07:30,1.044,1.749,1.169,2.034,1.413,0.554,1.020,0.947,�k,4.8,��
2017/02/24,07:40,1.043,1.750,1.166,2.038,1.414,0.554,1.019,0.944,�k�k��,6.4,��
2017/02/24,07:50,1.042,1.750,1.167,2.039,1.413,0.554,1.020,0.948,�k�k��,5.2,��
2017/02/24,08:00,1.044,1.752,1.165,2.038,1.411,0.554,1.018,0.947,�k�k��,5.6,��
2017/02/24,08:10,1.044,1.750,1.169,2.038,1.410,0.553,1.020,0.948,�k�k��,6.0,��
2017/02/24,08:20,1.045,1.751,1.168,2.039,1.414,0.554,1.019,0.948,�k�k��,5.4,��
2017/02/24,08:30,1.044,1.752,1.168,2.038,1.410,0.555,1.021,0.948,�k�k��,5.9,��
2017/02/24,08:40,1.045,1.749,1.170,2.038,1.415,0.556,1.022,0.946,�k,5.4,��
2017/02/24,08:50,1.044,1.750,1.170,2.039,1.415,0.555,1.021,0.948,�k�k��,5.4,��
2017/02/24,09:00,1.045,1.752,1.171,2.040,1.416,0.555,1.018,0.948,�k��,4.8,��
2017/02/24,09:10,1.046,1.754,1.172,2.041,1.416,0.555,1.018,0.947,�k�k��,2.9,��
2017/02/24,09:20,1.045,1.752,1.167,2.041,1.417,0.554,1.019,0.948,�k��,2.8,��
2017/02/24,09:30,1.045,1.752,1.172,2.042,1.417,0.555,1.020,0.948,���k��,5.8,��
2017/02/24,09:40,1.044,1.751,1.173,2.040,1.417,0.554,1.019,0.948,���k��,8.8,��
2017/02/24,09:50,1.047,1.753,1.172,2.041,1.414,0.556,1.022,0.946,�k��,7.7,��
2017/02/24,10:00,1.047,1.752,1.170,2.043,1.417,0.555,1.020,0.949,���k��,6.9,��
2017/02/24,10:10,1.048,1.757,1.173,2.042,1.415,0.556,1.021,0.947,�k��,7.9,��
2017/02/24,10:20,1.047,1.750,1.174,2.040,1.417,0.556,1.020,0.949,���k��,11.3,��
2017/02/24,10:30,1.046,1.754,1.173,2.039,1.418,0.555,1.021,0.950,���k��,6.6,��
2017/02/24,10:40,1.049,1.754,1.172,2.045,1.419,0.555,1.019,0.950,���k��,4.8,��
2017/02/24,10:50,1.049,1.755,1.171,2.045,1.420,0.556,1.019,0.948,���k��,9.9,��
2017/02/24,11:00,1.050,1.756,1.174,2.045,1.421,0.556,1.018,0.949,��,10.1,��
2017/02/24,11:10,1.051,1.754,1.171,2.042,1.421,0.553,1.018,0.949,���k��,11.7,��
2017/02/24,11:20,1.050,1.757,1.171,2.045,1.422,0.556,1.019,0.949,���k��,8.4,��
2017/02/24,11:30,1.049,1.760,1.170,2.047,1.423,0.556,1.020,0.950,���k��,7.1,��
2017/02/24,11:40,1.051,1.759,1.170,2.042,1.424,0.556,1.019,0.949,���k��,9.4,��
2017/02/24,11:50,1.051,1.759,1.173,2.046,1.423,0.555,1.020,0.949,��,8.3,��
2017/02/24,12:00,1.053,1.761,1.172,2.048,1.422,0.556,1.021,0.951,��,7.6,��
2017/02/24,12:10,1.054,1.760,1.171,2.047,1.424,0.556,1.018,0.948,���k��,8.6,��
2017/02/24,12:20,1.053,1.758,1.172,2.046,1.425,0.558,1.020,0.949,���k��,8.7,��
2017/02/24,12:30,1.054,1.759,1.173,2.049,1.426,0.556,1.020,0.948,���k��,10.9,��
2017/02/24,12:40,1.053,1.759,1.176,2.049,1.423,0.557,1.021,0.951,���k��,9.5,��
2017/02/24,12:50,1.052,1.758,1.173,2.048,1.426,0.558,1.021,0.950,���k��,10.4,��
2017/02/24,13:00,1.054,1.760,1.175,2.048,1.423,0.556,1.022,0.952,���k��,8.6,��
2017/02/24,13:10,1.054,1.762,1.178,2.050,1.427,0.557,1.021,0.950,���k��,9.9,��
2017/02/24,13:20,1.057,1.763,1.177,2.050,1.425,0.556,1.024,0.951,��,9.3,��
2017/02/24,13:30,1.056,1.761,1.176,2.049,1.426,0.557,1.022,0.950,���k��,7.2,��
2017/02/24,13:40,1.053,1.763,1.175,2.050,1.425,0.558,1.021,0.950,���k��,6.0,��
2017/02/24,13:50,1.054,1.764,1.176,2.051,1.426,0.557,1.019,0.951,���k��,8.3,��
2017/02/24,14:00,1.054,1.764,1.179,2.052,1.426,0.557,1.022,0.949,���k��,9.9,��
2017/02/24,14:10,1.055,1.765,1.180,2.051,1.428,0.557,1.020,0.948,���k��,7.2,��
2017/02/24,14:20,1.056,1.763,1.177,2.053,1.425,0.557,1.020,0.946,��,9.8,��
2017/02/24,14:30,1.055,1.766,1.177,2.050,1.424,0.556,1.019,0.949,��,7.7,��
2017/02/24,14:40,1.056,1.765,1.178,2.052,1.426,0.556,1.021,0.947,���k��,10.2,��
2017/02/24,14:50,1.054,1.766,1.179,2.053,1.426,0.558,1.021,0.948,��,11.3,��
2017/02/24,15:00,1.056,1.763,1.180,2.050,1.426,0.556,1.022,0.947,��,8.1,��
2017/02/24,15:10,1.055,1.767,1.177,2.050,1.428,0.557,1.021,0.951,��,7.1,��
2017/02/24,15:20,1.055,1.766,1.178,2.052,1.428,0.559,1.022,0.951,��,8.0,��
2017/02/24,15:30,1.055,1.767,1.177,2.049,1.429,0.557,1.024,0.948,���k��,10.2,��
2017/02/24,15:40,1.055,1.765,1.179,2.052,1.430,0.560,1.022,0.950,���k��,9.5,��
2017/02/24,15:50,1.057,1.769,1.178,2.052,1.430,0.557,1.024,0.948,��,8.1,��
2017/02/24,16:00,1.054,1.770,1.179,2.053,1.430,0.557,1.024,0.949,��,8.0,��
2017/02/24,16:10,1.054,1.768,1.177,2.056,1.432,0.559,1.023,0.948,���k��,6.9,��
2017/02/24,16:20,1.057,1.767,1.178,2.054,1.432,0.557,1.023,0.949,���k��,5.1,��
2017/02/24,16:30,1.056,1.764,1.181,2.050,1.433,0.558,1.022,0.949,���k��,5.7,��
2017/02/24,16:40,1.055,1.766,1.177,2.055,1.430,0.556,1.021,0.948,��,4.7,��
2017/02/24,16:50,1.058,1.767,1.180,2.050,1.428,0.557,1.022,0.949,���k��,4.7,��
2017/02/24,17:00,1.055,1.766,1.179,2.050,1.429,0.555,1.023,0.948,��,5.7,��
2017/02/24,17:10,1.056,1.769,1.181,2.052,1.426,0.556,1.023,0.949,���쐼,5.5,��
2017/02/24,17:20,1.056,1.765,1.178,2.055,1.429,0.557,1.024,0.950,���쐼,7.5,��
2017/02/24,17:30,1.054,1.766,1.176,2.053,1.426,0.556,1.022,0.947,���쐼,7.3,��
2017/02/24,17:40,1.053,1.765,1.179,2.047,1.429,0.555,1.022,0.949,���쐼,8.0,��
2017/02/24,17:50,1.051,1.767,1.177,2.047,1.427,0.558,1.020,0.946,���쐼,8.0,��
2017/02/24,18:00,1.052,1.765,1.176,2.049,1.427,0.556,1.020,0.947,���쐼,6.6,��
2017/02/24,18:10,1.053,1.766,1.177,2.049,1.427,0.557,1.021,0.947,��,6.5,��
2017/02/24,18:20,1.053,1.767,1.176,2.049,1.429,0.556,1.023,0.947,��,6.8,��
2017/02/24,18:30,1.053,1.765,1.178,2.050,1.429,0.555,1.020,0.949,��,6.0,��
2017/02/24,18:40,1.052,1.765,1.174,2.051,1.427,0.556,1.021,0.947,��,6.6,��
2017/02/24,18:50,1.051,1.765,1.175,2.049,1.428,0.556,1.022,0.947,��,5.8,��
2017/02/24,19:00,1.053,1.766,1.176,2.048,1.424,0.557,1.021,0.948,��,6.1,��
2017/02/24,19:10,1.052,1.765,1.174,2.048,1.427,0.556,1.021,0.948,��,5.7,��
2017/02/24,19:20,1.053,1.765,1.176,2.050,1.425,0.556,1.022,0.948,��,5.7,��
2017/02/24,19:30,1.051,1.764,1.175,2.049,1.426,0.556,1.021,0.948,���k��,5.4,��
2017/02/24,19:40,1.050,1.765,1.175,2.052,1.428,0.557,1.020,0.947,��,4.7,��
2017/02/24,19:50,1.051,1.762,1.175,2.050,1.428,0.556,1.021,0.946,���k��,5.2,��
2017/02/24,20:00,1.050,1.763,1.173,2.047,1.424,0.555,1.019,0.948,���k��,5.8,��
2017/02/24,20:10,1.049,1.765,1.172,2.049,1.427,0.554,1.020,0.948,�k��,4.1,��
2017/02/24,20:20,1.050,1.762,1.175,2.048,1.425,0.555,1.022,0.949,�k��,4.3,��
2017/02/24,20:30,1.050,1.764,1.174,2.049,1.425,0.555,1.021,0.947,�k��,3.7,��
2017/02/24,20:40,1.047,1.763,1.171,2.047,1.425,0.555,1.021,0.948,�k��,5.1,��
2017/02/24,20:50,1.048,1.763,1.173,2.049,1.424,0.555,1.020,0.947,���k��,6.4,��
2017/02/24,21:00,1.051,1.761,1.174,2.046,1.422,0.555,1.021,0.949,�k��,7.0,��
2017/02/24,21:10,1.049,1.763,1.174,2.050,1.425,0.554,1.022,0.948,���k��,8.8,��
2017/02/24,21:20,1.049,1.762,1.172,2.052,1.428,0.555,1.020,0.949,���k��,9.7,��
2017/02/24,21:30,1.048,1.764,1.173,2.048,1.427,0.556,1.022,0.948,�k��,8.2,��
2017/02/24,21:40,1.049,1.762,1.174,2.048,1.425,0.555,1.021,0.946,�k��,7.0,��
2017/02/24,21:50,1.050,1.764,1.175,2.050,1.425,0.553,1.021,0.948,���k��,6.3,��
2017/02/24,22:00,1.049,1.764,1.170,2.047,1.424,0.553,1.021,0.948,�k��,6.6,��
2017/02/24,22:10,1.051,1.763,1.172,2.047,1.425,0.553,1.021,0.947,�k��,7.9,��
2017/02/24,22:20,1.050,1.765,1.172,2.049,1.425,0.553,1.021,0.947,�k��,6.9,��
2017/02/24,22:30,1.049,1.762,1.170,2.049,1.422,0.555,1.020,0.946,�k��,7.3,��
2017/02/24,22:40,1.048,1.760,1.171,2.047,1.424,0.555,1.021,0.947,���k��,7.6,��
2017/02/24,22:50,1.046,1.763,1.170,2.047,1.427,0.555,1.021,0.948,���k��,7.4,��
2017/02/24,23:00,1.048,1.765,1.172,2.049,1.424,0.554,1.020,0.946,�k��,8.1,��
2017/02/24,23:10,1.050,1.762,1.173,2.047,1.426,0.555,1.021,0.947,�k��,8.5,��
2017/02/24,23:20,1.050,1.762,1.174,2.048,1.426,0.554,1.023,0.947,�k��,6.5,��
2017/02/24,23:30,1.051,1.767,1.173,2.047,1.427,0.555,1.019,0.948,�k��,6.1,��
2017/02/24,23:40,1.050,1.765,1.173,2.050,1.426,0.553,1.020,0.947,�k��,6.1,��
2017/02/24,23:50,1.052,1.763,1.172,2.049,1.424,0.555,1.021,0.946,�k��,7.2,��
